Content
SEND FEEDBACK

Daily
Averages
Monthly
Summary
Canada

CALGARY, ALBERTA


Home > North America > Canada > Alberta
Elevation: 3556 feet     Latitude: 51 06N     Longitude: 114 01W

WEATHER
 
SELECT A DAY
Number of Records: 192,071;   Date Range: 1/1/95 - 7/23/14
 
SHARE

PRINT THIS DATA

[ ← Previous Day ]
WEATHER ALMANAC - NOVEMBER 29, 2013
[ Next Day → ]
[ °C ]   °F
Weather ElementAverageHighLow
Temperature35.1 °F44.6 °F (1:00 am)30.2 °F (11:00 pm)
Dewpoint26.7 °F30.2 °F (4:00 pm)23 °F (6:00 am)
Humidity71.1 %87 % (7:00 pm)49 % (1:00 am)
Barometer30.04 in30.13 in (9:00 pm)29.94 in (1:00 am)
Wind Speed4.4 mph15 mph (1:00 am)
Weather ElementAverage
Visibility23.6 mi
Wind DirectionENE (69.7 °)

Weather ElementTotal
Precipitation---
Heating Degree Days27.6 (Base 65)
Averaged from 30 records on November 29, 2013
WEATHER CONDITIONS BREAKOUT
WIND DIRECTION BREAKOUT
WEATHER BY HOUR - NOVEMBER 29, 2013
[ °C ]   °F
Local TimeTemperatureDewpointHumidityBarometerVisibilityWind DirectionWind SpeedGust SpeedPrecipitationEventsConditions
1:00 AM44.6 °F26.6 °F49 %29.94 in15.0 miWest (270°)15.0 mphPartly Cloudy
2:00 AM41.0 °F28.4 °F61 %29.94 in15.0 miNNE (30°)10.4 mphMostly Cloudy
2:52 AM35.6 °F26.6 °F70 %29.99 in15.0 miNE (40°)9.2 mphMostly Cloudy
3:00 AM35.6 °F26.6 °F70 %30.00 in15.0 miNE (50°)6.9 mphMostly Cloudy
4:00 AM35.6 °F26.6 °F70 %30.01 in15.0 miNorth (10°)4.6 mphMostly Cloudy
5:00 AM34.0 °F25.0 °F60 %30.01 in15.0 miNorth3.5 mphMostly Cloudy
5:00 AM33.8 °F24.8 °F70 %30.01 in15.0 miNorth (10°)4.6 mphMostly Cloudy
6:00 AM35.6 °F23.0 °F60 %30.01 in15.0 miCalmMostly Cloudy
7:00 AM33.8 °F23.0 °F65 %30.01 in15.0 miVariable2.3 mphPartly Cloudy
8:00 AM33.8 °F23.0 °F65 %30.01 in40.0 miCalmMostly Cloudy
9:00 AM33.8 °F24.8 °F70 %30.01 in40.0 miCalmMostly Cloudy
10:00 AM33.8 °F26.6 °F75 %30.01 in40.0 miNE (40°)3.5 mphMostly Cloudy
11:00 AM36.0 °F27.0 °F61 %30.01 in34.0 miENE (60°)3.5 mphMostly Cloudy
11:00 AM37.4 °F26.6 °F65 %30.01 in35.0 miNE (40°)4.6 mphMostly Cloudy
11:02 AM35.6 °F26.6 °F70 %30.01 in35.0 miNE (40°)4.6 mphMostly Cloudy
12:00 PM35.6 °F26.6 °F70 %30.02 in40.0 miNE (50°)4.6 mphOvercast
1:00 PM39.2 °F26.6 °F61 %30.01 in40.0 miCalmOvercast
2:00 PM39.2 °F28.4 °F65 %30.02 in25.0 miENE (70°)3.5 mphOvercast
3:00 PM37.4 °F28.4 °F70 %30.03 in25.0 miEast (100°)2.3 mphOvercast
4:00 PM37.4 °F30.2 °F75 %30.05 in35.0 miCalmMostly Cloudy
4:19 PM35.6 °F28.4 °F75 %30.06 in35.0 miEast (90°)2.3 mphMostly Cloudy
5:00 PM33.0 °F29.0 °F80 %30.08 in28.0 miNNE (30°)9.2 mphOvercast
5:00 PM33.8 °F28.4 °F81 %30.08 in30.0 miNorth (10°)6.9 mphOvercast
6:00 PM33.8 °F28.4 °F81 %30.09 in15.0 miNorth (350°)5.8 mphMostly Cloudy
7:00 PM32.0 °F28.4 °F87 %30.11 in15.0 miNE (50°)4.6 mphOvercast
8:00 PM32.0 °F28.4 °F87 %30.11 in15.0 miNorth (360°)8.1 mphMostly Cloudy
9:00 PM32.0 °F26.6 °F80 %30.13 in15.0 miNNE (30°)4.6 mphMostly Cloudy
10:00 PM32.0 °F26.6 °F80 %30.13 in10.0 miNorth (360°)4.6 mphMostly Cloudy
11:00 PM31.0 °F26.0 °F75 %30.13 in10.0 miNorth1.2 mphMostly Cloudy
11:00 PM30.2 °F26.6 °F86 %30.12 in10.0 miVariable2.3 mphMostly Cloudy
Hourly data recorded from CYYC, located miles away from Calgary, Alberta







STORIES FROM OUR PARTNERS